This is the latest recevied weather packets stored in our database for station/object KB5DPX. If no packets are shown the sender has not sent any weather packets the latest 10 day(s).
| Time | Temp. | Humidity | Pressure | Rain* | Wind** | Luminosity | Snow |
|---|---|---|---|---|---|---|---|
| 1778011942 | 10.56° C | 47% | 1007.4 hPa | 0 mm | - | 779 W/m² | - |
| 1778011658 | 10.56° C | 46% | 1007.4 hPa | 0 mm | - | 786 W/m² | - |
| 1778011344 | 10.56° C | 47% | 1007.3 hPa | 0 mm | - | 802 W/m² | - |
| 1778011046 | 10.56° C | 47% | 1007.3 hPa | 0 mm | - | 766 W/m² | - |
| 1778010759 | 10° C | 45% | 1007.3 hPa | 0 mm | - | 765 W/m² | - |
| 1778010445 | 10.56° C | 47% | 1007.4 hPa | 0 mm | - | 835 W/m² | - |
| 1778010160 | 10.56° C | 46% | 1007.4 hPa | 0 mm | - | 788 W/m² | - |
| 1778009842 | 10.56° C | 49% | 1007.3 hPa | 0 mm | - | 860 W/m² | - |
| 1778009557 | 10° C | 48% | 1007.5 hPa | 0 mm | - | 860 W/m² | - |
| 1778009255 | 10° C | 48% | 1007.4 hPa | 0 mm | - | 860 W/m² | - |
| 1778008960 | 10° C | 45% | 1007.3 hPa | 0 mm | - | 891 W/m² | - |
| 1778008647 | 10° C | 51% | 1007.3 hPa | 0 mm | - | 884 W/m² | - |
| 1778008342 | 10° C | 53% | 1007.4 hPa | 0 mm | - | 886 W/m² | - |
| 1778008057 | 10° C | 53% | 1007.3 hPa | 0 mm | - | 911 W/m² | - |
| 1778007744 | 10° C | 53% | 1007.3 hPa | 0 mm | - | 921 W/m² | - |
| 1778007467 | 9.44° C | 53% | 1007.2 hPa | 0 mm | - | 902 W/m² | - |
| 1778007152 | 9.44° C | 55% | 1007.1 hPa | 0 mm | - | 905 W/m² | - |
| 1778006859 | 9.44° C | 55% | 1007.1 hPa | 0 mm | - | 912 W/m² | - |
| 1778006565 | 9.44° C | 54% | 1007 hPa | 0 mm | - | 918 W/m² | - |
| 1778006250 | 9.44° C | 55% | 1007 hPa | 0 mm | - | 926 W/m² | - |
| 1778005964 | 9.44° C | 56% | 1007 hPa | 0 mm | - | 926 W/m² | - |
| 1778005659 | 9.44° C | 56% | 1006.9 hPa | 0 mm | - | 932 W/m² | - |
| 1778005343 | 8.89° C | 61% | 1006.9 hPa | 0 mm | - | 935 W/m² | - |
| 1778005069 | 8.89° C | 60% | 1006.9 hPa | 0 mm | - | 937 W/m² | - |
| 1778004753 | 8.33° C | 61% | 1006.9 hPa | 0 mm | - | 944 W/m² | - |
* Rain latest hour (hover to see other rain measurements)
** Current wind speed in m/s (hover to see current wind gust speed)